Wheeling, WV

11:54 AM EDT on April 23, 2017 (GMT -0400)
Wheeling-Ohio County

Weather History for KHLG - October, 2013

Change the Weather History Date:

Saturday, October 12, 2013

  Actual Average Record
Temperature  
Mean Temperature 63 °F 54 °F  
Max Temperature 72 °F 64 °F 81 °F (2008)
Min Temperature 54 °F 45 °F 33 °F (1951)
Degree Days  
Heating Degree Days 2 11  
Month to date heating degree days 39 110  
Since 1 July heating degree days 163 211  
Cooling Degree Days 0    
Month to date cooling degree days 35  
Year to date cooling degree days 740  
Growing Degree Days 13 (Base 50)    
Moisture  
Dew Point 57 °F    
Average Humidity 77    
Maximum Humidity 86    
Minimum Humidity 68    
Precipitation  
Precipitation T in 0.08 in 1.15 in (1983)
Month to date precipitation 0.65 1.01  
Sea Level Pressure  
Sea Level Pressure 30.11 in    
Wind  
Wind Speed 6 mph (ENE)    
Max Wind Speed 15 mph    
Max Gust Speed 18 mph    
Visibility 10 miles    
Events      
T = Trace of Precipitation, MM = Missing Value Source: NWS Daily Summary

Daily Weather History Graph

Daily Weather History Graph

Search for Another Location

Airport or City:

Trip Planner

Search our weather history database for the weather conditions in past years. The results will help you decide how hot, cold, wet, or windy it might be!

Date:

Astronomy

Oct. 12, 2013 Rise Set
Actual Time 7:30 AM EDT 6:47 PM EDT
Civil Twilight 7:03 AM EDT 7:14 PM EDT
Nautical Twilight 6:31 AM EDT 7:45 PM EDT
Astronomical Twilight 6:00 AM EDT 8:17 PM EDT
Moon 2:55 PM EDT (10/12) 12:31 AM EDT (10/12)
Length of Visible Light 12h 11m
Length of Day
11h 16m
First Quarter, 58% of the Moon is Illuminated
Oct 12
First Quarter
Oct 18
Full
Oct 26
Last Quarter
Nov 3
New
Nov 10
First Quarter

Hourly Weather History & Observations

Time (EDT) Temp. Dew Point Humidity Pressure Visibility Wind Dir Wind Speed Gust Speed Precip Events Conditions
12:53 AM 57.0 °F 53.1 °F 87% 30.08 in 10.0 mi ENE 4.6 mph - N/A   Clear
1:53 AM 55.9 °F 52.0 °F 87% 30.08 in 10.0 mi NE 4.6 mph - N/A   Mostly Cloudy
2:53 AM 57.0 °F 52.0 °F 83% 30.08 in 10.0 mi NNE 3.5 mph - N/A   Overcast
3:53 AM 57.0 °F 52.0 °F 83% 30.08 in 10.0 mi North 3.5 mph - N/A   Overcast
4:53 AM 55.9 °F 52.0 °F 87% 30.09 in 10.0 mi ENE 8.1 mph - N/A   Overcast
5:53 AM 55.0 °F 51.1 °F 86% 30.09 in 10.0 mi NE 5.8 mph - N/A   Overcast
6:53 AM 55.0 °F 51.1 °F 86% 30.11 in 10.0 mi NE 6.9 mph - N/A   Scattered Clouds
7:53 AM 55.9 °F 52.0 °F 87% 30.12 in 10.0 mi NE 3.5 mph - N/A   Overcast
8:53 AM 57.0 °F 53.1 °F 87% 30.13 in 10.0 mi ENE 8.1 mph - N/A   Overcast
9:53 AM 60.1 °F 55.0 °F 83% 30.13 in 10.0 mi NE 6.9 mph - N/A   Overcast
10:53 AM 62.1 °F 55.9 °F 80% 30.13 in 10.0 mi ENE 6.9 mph - N/A   Overcast
11:53 AM 66.0 °F 57.9 °F 75% 30.13 in 10.0 mi ESE 5.8 mph - 0.00 in   Overcast
12:53 PM 66.9 °F 59.0 °F 76% 30.12 in 10.0 mi East 8.1 mph - N/A   Overcast
1:53 PM 69.1 °F 60.1 °F 73% 30.10 in 10.0 mi East 4.6 mph - N/A   Overcast
2:48 PM 71.6 °F 60.8 °F 69% 30.10 in 10.0 mi ENE 8.1 mph - N/A   Overcast
2:53 PM 70.0 °F 61.0 °F 73% 30.09 in 10.0 mi ENE 3.5 mph - N/A   Overcast
3:23 PM 71.6 °F 60.8 °F 69% 30.09 in 10.0 mi ENE 9.2 mph - N/A   Overcast
3:53 PM 71.1 °F 60.1 °F 68% 30.09 in 10.0 mi East 11.5 mph - N/A   Overcast
4:53 PM 70.0 °F 60.1 °F 71% 30.10 in 10.0 mi SE 6.9 mph - N/A   Overcast
5:53 PM 70.0 °F 60.1 °F 71% 30.11 in 10.0 mi Calm Calm - N/A   Mostly Cloudy
6:53 PM 68.0 °F 61.0 °F 78% 30.12 in 10.0 mi NE 5.8 mph - N/A   Overcast
7:53 PM 66.9 °F 61.0 °F 81% 30.14 in 10.0 mi ENE 6.9 mph - N/A   Overcast
8:53 PM 66.9 °F 60.1 °F 79% 30.14 in 10.0 mi East 8.1 mph - N/A   Mostly Cloudy
9:53 PM 64.0 °F 59.0 °F 84% 30.14 in 10.0 mi ESE 10.4 mph - N/A   Clear
10:53 PM 63.0 °F 57.9 °F 84% 30.14 in 10.0 mi ESE 6.9 mph 18.4 mph N/A   Clear
11:53 PM 62.1 °F 57.9 °F 86% 30.16 in 10.0 mi Calm Calm - N/A   Clear